Location: Fort Worth, Tx
(32.7431°N, 97.3695°W)
Time: 18:55:57
(UTC-04:00)

Transit 4A - Pass Details

Date: 01 March 2024
Orbit: 871 x 972 km, 66.8° (Epoch: 22 April)

Event Time Altitude Azimuth Distance (km) Brightness Sun altitude
Rises 02:56:50 0° 257° (WSW) 3,602 - -59.2°
Reaches altitude 10° 03:00:52 10° 282° (WNW) 2,638 - -58.7°
Maximum altitude 03:03:51 14° 311° (NW) 2,360 - -58.3°
Drops below altitude 10° 03:06:49 10° 341° (NNW) 2,608 - -57.8°
Sets 03:10:47 0° 7° (N) 3,529 - -57.3°
